Weather History for Colorado Springs, CO

Change the Weather History Date:

Friday, December 20, 2013

  Actual Average Record
Temperature  
Mean Temperature 23 °F 29 °F  
Max Temperature 26 °F 42 °F 69 °F (1894)
Min Temperature 20 °F 17 °F -13 °F (1983)
Degree Days  
Heating Degree Days 42 36  
Month to date heating degree days 740 702  
Since 1 July heating degree days 2101 2183  
Cooling Degree Days 0 0  
Month to date cooling degree days 0 0  
Year to date cooling degree days 694 455  
Moisture  
Dew Point 20 °F    
Average Humidity 87    
Maximum Humidity 92    
Minimum Humidity 81    
Precipitation  
Precipitation T in 0.01 in 0.24 in (1914)
Month to date precipitation 0.07 0.23  
Year to date precipitation 19.22 16.43  
Snow  
Snow 0.00 in 0.20 in 2.30 in (2011)
Month to date snowfall 2.9 3.8  
Since 1 July snowfall 7.1 11.6  
Snow Depth T in    
Sea Level Pressure  
Sea Level Pressure 29.78 in    
Wind  
Wind Speed 5 mph (South)    
Max Wind Speed 15 mph    
Max Gust Speed 17 mph    
Visibility 1 miles    
Events Fog , Snow    
T = Trace of Precipitation, MM = Missing Value Source: NWS Daily Summary

Daily Weather History Graph

Daily Weather History Graph

Search for Another Location

Airport:

Trip Planner

Search our weather history database for the weather conditions in past years. The results will help you decide how hot, cold, wet, or windy it might be!

Date:

Astronomy

Dec. 20, 2013 Rise Set
Actual Time 7:13 AM MST 4:40 PM MST
Civil Twilight 6:43 AM MST 5:09 PM MST
Nautical Twilight 6:09 AM MST 5:43 PM MST
Astronomical Twilight 5:37 AM MST 6:15 PM MST
Moon 8:01 PM MST (12/20) 9:09 AM MST (12/20)
Length of Visible Light 10h 26m
Length of Day
9h 26m
Waning Gibbous, 90% of the Moon is Illuminated
Dec 20
Waning Gibbous
Dec 25
Last Quarter
Jan 1
New
Jan 7
First Quarter
Jan 15
Full

Hourly Weather History & Observations

Time (MST) Temp. Windchill Dew Point Humidity Pressure Visibility Wind Dir Wind Speed Gust Speed Precip Events Conditions
12:08 AM 23.0 °F 13.1 °F 21.0 °F 92% 29.78 in 5.0 mi SSW 9.2 mph - N/A   Overcast
12:54 AM 21.9 °F 9.8 °F 19.9 °F 92% 29.79 in 3.0 mi SSE 12.7 mph - N/A   Overcast
1:54 AM 21.9 °F 11.0 °F 19.9 °F 92% 29.79 in 4.0 mi SE 10.4 mph - N/A   Overcast
2:54 AM 21.9 °F 11.7 °F 19.9 °F 92% 29.79 in 4.0 mi SE 9.2 mph - 0.00 in Snow Light Snow
3:54 AM 21.9 °F 11.7 °F 19.9 °F 92% 29.78 in 3.0 mi SSE 9.2 mph - 0.00 in Snow Light Snow
4:16 AM 21.9 °F 9.8 °F 19.9 °F 92% 29.77 in 0.5 mi SSE 12.7 mph - 0.00 in Fog , Snow Light Snow
4:54 AM 21.0 °F 8.6 °F 19.0 °F 92% 29.79 in 0.2 mi SSE 12.7 mph - 0.00 in Fog , Snow Light Snow
5:54 AM 19.9 °F 6.7 °F 19.0 °F 96% 29.83 in 0.1 mi SSE 13.8 mph - 0.00 in Fog Light Freezing Fog
6:54 AM 19.9 °F 10.1 °F 18.0 °F 92% 29.85 in 0.1 mi South 8.1 mph - N/A Fog Light Freezing Fog
7:54 AM 21.0 °F 13.4 °F 18.0 °F 88% 29.87 in 0.1 mi South 5.8 mph - N/A Fog Light Freezing Fog
8:54 AM 23.0 °F 17.0 °F 19.0 °F 85% 29.87 in 0.1 mi Variable 4.6 mph - N/A Fog Light Freezing Fog
9:54 AM 23.0 °F - 19.0 °F 85% 29.87 in 0.1 mi Calm Calm - 0.00 in Fog Light Freezing Fog
10:09 AM 23.0 °F 15.8 °F 19.0 °F 85% 29.74 in 0.1 mi SE 5.8 mph - N/A Fog Light Freezing Fog
10:54 AM 24.1 °F - 19.0 °F 81% 29.87 in 0.1 mi Calm Calm - 0.00 in Snow Light Snow
11:08 AM 24.1 °F - 19.0 °F 81% 29.73 in 0.2 mi Calm Calm - 0.00 in Fog , Snow Light Snow
11:54 AM 25.0 °F 15.5 °F 19.0 °F 78% 29.84 in 0.2 mi South 9.2 mph - 0.00 in   Overcast
12:54 PM 24.1 °F 19.7 °F 19.0 °F 81% 29.82 in 0.2 mi Variable 3.5 mph - 0.00 in Fog , Snow Light Snow
1:54 PM 25.0 °F 20.7 °F 21.0 °F 85% 29.77 in 0.2 mi SSW 3.5 mph - 0.00 in Fog Light Freezing Fog
2:54 PM 25.0 °F 18.1 °F 21.0 °F 85% 29.76 in 1.0 mi South 5.8 mph - N/A   Overcast
3:54 PM 26.1 °F 18.4 °F 21.0 °F 81% 29.77 in 1.0 mi WNW 6.9 mph - N/A   Overcast
4:54 PM 24.1 °F 18.2 °F 19.9 °F 84% 29.76 in 1.5 mi NNW 4.6 mph - N/A   Overcast
5:52 PM 24.8 °F - 19.4 °F 80% 29.65 in 4.0 mi Calm Calm - N/A   Overcast
5:54 PM 25.0 °F - 19.9 °F 81% 29.80 in 4.0 mi Calm Calm - N/A   Overcast
6:54 PM 24.1 °F 17.0 °F 21.0 °F 88% 29.82 in 3.0 mi South 5.8 mph - N/A   Overcast
7:54 PM 25.0 °F - 21.9 °F 88% 29.82 in 3.0 mi Calm Calm - N/A   Overcast
8:18 PM 26.1 °F - 21.9 °F 84% 29.68 in 1.0 mi Calm Calm - N/A   Overcast
8:54 PM 25.0 °F - 21.9 °F 88% 29.82 in 1.0 mi Calm Calm - N/A   Overcast
9:17 PM 25.0 °F 16.3 °F 21.9 °F 88% 29.67 in 0.5 mi WNW 8.1 mph - N/A Fog Light Freezing Fog
9:54 PM 25.0 °F - 21.9 °F 88% 29.79 in 0.2 mi Calm Calm - N/A Fog Light Freezing Fog
10:54 PM 23.0 °F - 19.9 °F 88% 29.78 in 0.5 mi Calm Calm - N/A Fog Light Freezing Fog
11:29 PM 21.9 °F 15.7 °F 19.0 °F 89% 29.63 in 0.2 mi West 4.6 mph - N/A Fog Light Freezing Fog
11:54 PM 21.9 °F 17.2 °F 19.0 °F 89% 29.75 in 0.2 mi NW 3.5 mph - N/A Fog Light Freezing Fog